User: anonymous   Login
Location: ?????????
(38.5999°N, 22.7695°E)
Time: 20:16:34
(UTC+00:00)
Language:

Lacrosse 5 rocket - Orbit

View from above orbital plane
View from above orbital plane
View from above satellite
View from above satellite

Ground track
Ground track

The orbit data is extracted from the following two-line orbital elements,

1 28647U 05016B   24199.51603878  .00013322  00000-0  56386-3 0  9994
2 28647  56.9925 262.8194 0095699 332.6350  26.9671 15.19445716285129
Epoch (UTC): 17 July 2024 12:23:05
Eccentricity: 0.0095699
inclination: 56.9925°
perigee height: 441 km
apogee height: 573 km
right ascension of ascending node: 262.8194°
argument of perigee: 332.6350°
revolutions per day: 15.19445716
mean anomaly at epoch: 26.9671°
orbit number at epoch: 28512

The dashed part of the orbit path shows where the satellite is in the earth's shadow,  

DLR